Edinburgh Airport, United Kingdom

12:38 AM BST on March 27, 2017 (GMT +0100)
Edinburgh Airport

Weather History for EGPH - March, 2014

Change the Weather History Date:

Friday, March 7, 2014

  Actual Average Record
Temperature  
Mean Temperature 42 °F -  
Max Temperature 50 °F 49 °F 55 °F (2001)
Min Temperature 33 °F 36 °F 24 °F (2016)
Degree Days  
Heating Degree Days 24    
Moisture  
Dew Point 37 °F    
Average Humidity 80    
Maximum Humidity 94    
Minimum Humidity 53    
Precipitation  
Precipitation 0.00 in 0.06 in - ()
Sea Level Pressure  
Sea Level Pressure 29.94 in    
Wind  
Wind Speed 15 mph ()    
Max Wind Speed 28 mph    
Max Gust Speed 45 mph    
Visibility 6.2 miles    
Events Rain    
Averages and records for this station are not official NWS values.
T = Trace of Precipitation, MM = Missing Value Source: Averaged Metar Reports

Daily Weather History Graph

Daily Weather History Graph

Search for Another Location

Airport or City:

Trip Planner

Search our weather history database for the weather conditions in past years. The results will help you decide how hot, cold, wet, or windy it might be!

Date:

Astronomy

Mar. 07, 2014 Rise Set
Actual Time 6:49 AM GMT 6:00 PM GMT
Civil Twilight 6:12 AM GMT 6:37 PM GMT
Nautical Twilight 5:29 AM GMT 7:20 PM GMT
Astronomical Twilight 4:46 AM GMT 8:04 PM GMT
Moon 9:26 AM GMT (3/7) 12:54 AM GMT (3/7)
Length of Visible Light 12h 24m
Length of Day
11h 10m
Waxing Crescent, 40% of the Moon is Illuminated
Mar 7
Waxing Crescent
Mar 8
First Quarter
Mar 16
Full
Mar 24
Last Quarter
Mar 30
New

Hourly Weather History & Observations

Time (GMT) Temp. Windchill Dew Point Humidity Pressure Visibility Wind Dir Wind Speed Gust Speed Precip Events Conditions
12:20 AM 50.0 °F - 48.2 °F 94% 29.74 in 6.2 mi SW 15.0 mph - N/A Rain Light Rain
12:50 AM 50.0 °F - 48.2 °F 94% 29.71 in 6.2 mi SW 17.3 mph - N/A Rain Light Rain
1:20 AM 50.0 °F - 48.2 °F 94% 29.71 in 6.2 mi SW 15.0 mph - N/A Rain Light Rain
1:50 AM 50.0 °F - 48.2 °F 94% 29.71 in 6.2 mi SW 16.1 mph - N/A Rain Light Rain
2:20 AM 50.0 °F - 46.4 °F 87% 29.68 in 6.2 mi SSW 17.3 mph - N/A Rain Light Rain
2:50 AM 50.0 °F - 46.4 °F 87% 29.68 in 6.2 mi SSW 18.4 mph - N/A Rain Light Rain
3:20 AM 50.0 °F - 46.4 °F 87% 29.68 in 6.2 mi SSW 17.3 mph - N/A Rain Light Rain
3:50 AM 50.0 °F - 46.4 °F 87% 29.65 in 6.2 mi SW 16.1 mph - N/A Rain Light Rain
4:20 AM 50.0 °F - 46.4 °F 87% 29.65 in 6.2 mi SW 15.0 mph - N/A Rain Light Rain
4:50 AM 48.2 °F - 46.4 °F 93% 29.65 in 6.2 mi WSW 11.5 mph - N/A Rain Light Rain
5:20 AM 48.2 °F - 44.6 °F 87% 29.68 in 6.2 mi West 13.8 mph - N/A Rain Light Rain
5:50 AM 46.4 °F 42.4 °F 44.6 °F 93% 29.68 in 6.2 mi West 8.1 mph - N/A Rain Light Rain
6:20 AM 46.4 °F 41.5 °F 42.8 °F 87% 29.71 in 6.2 mi WSW 10.4 mph - N/A Rain Light Rain
6:50 AM 46.4 °F 41.1 °F 42.8 °F 87% 29.71 in 6.2 mi WSW 11.5 mph - N/A   Mostly Cloudy
7:20 AM 46.4 °F 40.7 °F 42.8 °F 87% 29.71 in 6.2 mi WSW 12.7 mph - N/A   Mostly Cloudy
7:50 AM 46.4 °F 39.5 °F 42.8 °F 87% 29.71 in 6.2 mi WSW 17.3 mph - N/A   Scattered Clouds
8:20 AM 46.4 °F 38.7 °F 42.8 °F 87% 29.71 in 6.2 mi WSW 20.7 mph - N/A   Mostly Cloudy
8:50 AM 44.6 °F 35.7 °F 41.0 °F 87% 29.77 in 6.2 mi WSW 24.2 mph 35.7 mph N/A   Mostly Cloudy
9:20 AM 44.6 °F 36.1 °F 39.2 °F 81% 29.77 in 6.2 mi West 21.9 mph 33.4 mph N/A Rain Light Rain
9:50 AM 44.6 °F 35.5 °F 37.4 °F 76% 29.80 in 6.2 mi WSW 25.3 mph 36.8 mph N/A   Unknown
10:20 AM 42.8 °F 32.7 °F 35.6 °F 76% 29.83 in 6.2 mi West 27.6 mph 44.9 mph N/A   Scattered Clouds
10:50 AM 42.8 °F 34.0 °F 35.6 °F 76% 29.86 in 6.2 mi West 20.7 mph - N/A   Partly Cloudy
11:20 AM 42.8 °F 33.5 °F 33.8 °F 70% 29.89 in 6.2 mi West 23.0 mph - N/A   Partly Cloudy
11:50 AM 41.0 °F 31.6 °F 35.6 °F 81% 29.92 in 6.2 mi West 20.7 mph 32.2 mph N/A   Partly Cloudy
12:20 PM 44.6 °F 35.5 °F 32.0 °F 61% 29.92 in 6.2 mi West 25.3 mph 40.3 mph N/A   Partly Cloudy
12:50 PM 39.2 °F 30.5 °F 32.0 °F 75% 29.95 in 6.2 mi West 16.1 mph - N/A   Scattered Clouds
1:20 PM 42.8 °F 33.5 °F 33.8 °F 70% 29.98 in 6.2 mi WSW 23.0 mph 34.5 mph N/A   Partly Cloudy
1:50 PM 44.6 °F 35.5 °F 32.0 °F 61% 30.01 in 6.2 mi West 25.3 mph 36.8 mph N/A   Scattered Clouds
2:20 PM 44.6 °F 35.7 °F 28.4 °F 53% 30.04 in 6.2 mi West 24.2 mph 35.7 mph N/A   Partly Cloudy
2:50 PM 44.6 °F 35.7 °F 28.4 °F 53% 30.04 in 6.2 mi West 24.2 mph 35.7 mph N/A   Partly Cloudy
3:20 PM 39.2 °F 29.6 °F 32.0 °F 75% 30.09 in 6.2 mi WNW 19.6 mph 40.3 mph N/A Rain Light Rain Showers
3:50 PM 39.2 °F 29.3 °F 32.0 °F 75% 30.09 in 6.2 mi WNW 20.7 mph 34.5 mph N/A Rain Light Rain Showers
4:20 PM 41.0 °F 32.8 °F 32.0 °F 70% 30.12 in 6.2 mi West 16.1 mph - N/A   Partly Cloudy
4:50 PM 41.0 °F 32.8 °F 30.2 °F 65% 30.12 in 6.2 mi WSW 16.1 mph - N/A   Partly Cloudy
5:20 PM 41.0 °F 32.5 °F 30.2 °F 65% 30.15 in 6.2 mi West 17.3 mph - N/A   Partly Cloudy
5:50 PM 37.4 °F 28.9 °F 32.0 °F 81% 30.18 in 6.2 mi WSW 13.8 mph - N/A   Partly Cloudy
6:20 PM 37.4 °F 28.9 °F 32.0 °F 81% 30.18 in - SW 13.8 mph - N/A   Clear
6:50 PM 35.6 °F 29.9 °F 32.0 °F 87% 30.21 in - SW 6.9 mph - N/A   Clear
7:20 PM 33.8 °F 28.6 °F 30.2 °F 87% 30.21 in 6.2 mi WSW 5.8 mph - N/A   Partly Cloudy
7:50 PM 35.6 °F 29.2 °F 32.0 °F 87% 30.21 in 6.2 mi SW 8.1 mph - N/A   Unknown
8:20 PM 37.4 °F 32.1 °F 30.2 °F 75% 30.21 in - WSW 6.9 mph - N/A   Clear
8:50 PM 35.6 °F 29.2 °F 30.2 °F 81% 30.21 in - SW 8.1 mph - N/A   Clear
9:20 PM 37.4 °F 31.4 °F 30.2 °F 75% 30.24 in - SW 8.1 mph - N/A   Clear
9:50 PM 35.6 °F 29.2 °F 30.2 °F 81% 30.24 in - SW 8.1 mph - N/A   Clear
10:20 PM 33.8 °F 25.8 °F 28.4 °F 81% 30.24 in - WSW 10.4 mph - N/A   Clear
10:50 PM 37.4 °F 32.1 °F 30.2 °F 75% 30.24 in - SSW 6.9 mph - N/A   Clear
11:20 PM 35.6 °F - 30.2 °F 81% 30.24 in - Variable 2.3 mph - N/A   Clear
11:50 PM 37.4 °F 31.4 °F 30.2 °F 75% 30.24 in - SSW 8.1 mph - N/A   Clear